[[{"header":{"parameterUnit":"m.s-1","parameterCategory":2,"la1":30.2991,"la2":30.254,"lo1":-89.0895,"lo2":-89.0444,"dy":0.0017,"dx":0.0017,"nx":28,"ny":28,"refTime":"2024-10-18T21:00:00:Z","depth":"0","parameterNumber":2,"parameterNumberName":"U-component_of_CURRENTS"},"data":[0,0,0,0,0,0,0,0,0,0,0,0,0,0,0,0,0,0,0,0,0,0,0,0,0,0,0,0,0,0,0,0,0,0,0,0,0,0,0,0,0,0,0,0,0,0,0,0,0,0,0,0,0,0,0,0,0,0,0.3255,0.3254,0,0.3163,0.3162,0.316,0.3085,0.3084,0.3084,0.3084,0.3045,0.3044,0.3043,0,0,0,0,0,0,0,0,0,0,0,0,0,0.3322,0.3321,0.3255,0.3254,0.3254,0.3164,0.3162,0.316,0.3085,0.3084,0.3084,0.3084,0.3045,0.3044,0.3043,0,0,0,0,0,0,0,0,0,0,0,0,0,0.3262,0.3321,0.3255,0.321,0.3206,0.3164,0.3162,0.3159,0.3085,0.3084,0.3084,0.3084,0.3046,0.3044,0.3043,0.3042,0,0,0.3039,0.3039,0,0,0,0,0,0,0,0,0.3266,0.3259,0.3217,0.3213,0.3208,0.3141,0.3171,0.3125,0.3085,0.3124,0.3084,0.3084,0.3086,0.3081,0.3055,0.304,0.3039,0.3039,0.3038,0.3038,0.3037,0,0,0,0,0,0,0,0.327,0.3262,0.3212,0.3217,0.3211,0.318,0.3171,0.3161,0.3104,0.3121,0.3116,0.3116,0.3083,0.3057,0.3054,0.3038,0.3039,0.3038,0.3037,0.3037,0.3053,0.3054,0,0,0,0,0,0,0.3296,0.3267,0.3215,0.321,0.3244,0.318,0.3169,0.3157,0.3103,0.3096,0.3117,0.3113,0.3059,0.3056,0.3053,0.3072,0.3038,0.3037,0.3036,0.3052,0.3053,0.3054,0,0,0,0,0,0,0.3298,0.3292,0.3219,0.3242,0.3231,0.318,0.3167,0.3156,0.3137,0.3101,0.3093,0.3111,0.3058,0.3054,0.305,0.3069,0.3036,0.3035,0.305,0.3052,0.3054,0.3097,0,0,0,0,0,0,0.33,0.3293,0.3288,0.3243,0.3231,0.3206,0.3167,0.3155,0.314,0.3135,0.3094,0.3089,0.3058,0.3052,0.3049,0.3067,0.3034,0.3049,0.3051,0.3053,0.3094,0.31,0.3105,0,0,0,0,0,0.3302,0.3302,0.3288,0.3282,0.3228,0.3207,0.3197,0.3156,0.3141,0.3136,0.3108,0.309,0.3064,0.3052,0.3048,0.3066,0.3048,0.305,0.3053,0.3091,0.3099,0.3105,0,0,0,0,0,0,0.3323,0.3293,0.3278,0.3266,0.3246,0.3197,0.319,0.3168,0.3138,0.3137,0.3098,0.3091,0.31,0.3081,0.3068,0.308,0.3057,0.3059,0.3087,0.3094,0.3099,0.3115,0.3033,0,0,0,0,0,0.333,0.3321,0.3292,0.3283,0.3279,0.3239,0.3225,0.3202,0.3175,0.3159,0.313,0.311,0.3106,0.3098,0.3087,0.3089,0.3098,0.3102,0.3108,0.3112,0.3124,0.3157,0.3167,0.3063,0.3063,0.3063,0,0,0.3336,0.3319,0.3313,0.3288,0.3267,0.3253,0.3227,0.3218,0.3204,0.3165,0.3139,0.3132,0.3113,0.3113,0.3115,0.3098,0.3148,0.3116,0.3119,0.3129,0.3161,0.3171,0.318,0.3065,0.3065,0.3064,0,0,0.3342,0.3332,0.3325,0.3314,0.3298,0.3275,0.3281,0.3244,0.3228,0.3212,0.3189,0.3196,0.3166,0.3159,0.3154,0.3189,0.3182,0.3187,0.3218,0.325,0.3258,0.3266,0.3294,0.3304,0.3182,0.3182,0.3182,0,0.3346,0.3328,0.3322,0.3314,0.3304,0.3291,0.328,0.3266,0.323,0.3231,0.3214,0.3205,0.319,0.3207,0.3214,0.3202,0.3216,0.319,0.3257,0.3265,0.3272,0.3299,0.3309,0.3185,0.3184,0.3184,0.3184,0,0.3339,0.333,0.3332,0.3311,0.3307,0.3301,0.329,0.3288,0.3275,0.3261,0.3281,0.3265,0.326,0.3263,0.3244,0.3291,0.3284,0.3266,0.324,0.3285,0.331,0.3321,0.3188,0.3187,0.3187,0.3186,0,0,0.3316,0.3323,0.3319,0.3308,0.3305,0.3292,0.3304,0.3301,0.3317,0.3303,0.3323,0.3323,0.3329,0.3326,0.3317,0.3344,0.3405,0.3327,0.3328,0.3354,0.3478,0.3432,0.3439,0.3397,0.3399,0.3401,0.3476,0,0.3301,0.3289,0.3299,0.3282,0.327,0.3284,0.3293,0.3302,0.3317,0.3338,0.3356,0.3375,0.3348,0.3362,0.3385,0.3408,0.3434,0.3387,0.3431,0.3433,0.3385,0.345,0.3309,0.3361,0.3486,0.3487,0.3489,0,0.3267,0.3265,0.3252,0.3261,0.3261,0.3258,0.3283,0.3293,0.3347,0.3374,0.3412,0.3426,0.3472,0.3443,0.3506,0.3477,0.3483,0.3496,0.3499,0.345,0.3406,0.3335,0.3375,0.3291,0.3504,0.3503,0.3502,0,0.3217,0.3222,0.321,0.3208,0.3226,0.3233,0.3246,0.3297,0.3327,0.3405,0.3445,0.3497,0.353,0.3558,0.3577,0.3549,0.3649,0.3608,0.3574,0.357,0.3457,0.344,0.3419,0.3655,0.3655,0.3655,0.3655,0,0.3174,0.3156,0.3186,0.3171,0.3171,0.32,0.3223,0.3266,0.3347,0.3384,0.3453,0.35,0.3562,0.3612,0.3617,0.3637,0.3679,0.3602,0.3595,0.3467,0.3451,0.3377,0.3335,0.3658,0.3657,0.3656,0.3656,0,0.3102,0.3125,0.3104,0.3129,0.3141,0.3135,0.3197,0.322,0.3317,0.3377,0.3406,0.3523,0.3596,0.3649,0.3716,0.3684,0.3606,0.3701,0.355,0.3523,0.3386,0.3352,0.3222,0.3121,0.3675,0.3674,0.3674,0,0.3056,0.3041,0.306,0.3051,0.3058,0.3073,0.3087,0.3188,0.3228,0.3371,0.3392,0.3511,0.3571,0.3675,0.3672,0.3701,0.358,0.3561,0.3476,0.338,0.3338,0.321,0.3124,0.3347,0.3344,0.3341,0.3339,0,0.2961,0.2975,0.2965,0.2962,0.2964,0.2976,0.3012,0.3052,0.3166,0.3229,0.3328,0.3404,0.3532,0.3515,0.357,0.3559,0.3381,0.3507,0.3444,0.3118,0.2941,0.2838,0.3302,0.3316,0.3319,0.332,0.3322,0.3322,0.288,0.2858,0.2858,0.2844,0.285,0.2853,0.2832,0.2896,0.2945,0.3008,0.3174,0.322,0.3317,0.3388,0.3365,0.3248,0.3236,0.3127,0.3109,0.3001,0.2845,0.3265,0.3245,0.3247,0.3248,0.325,0.3251,0,0.2753,0.2749,0.2736,0.2706,0.267,0.2725,0.2748,0.2711,0.2705,0.2824,0.2892,0.2956,0.2968,0.3028,0.3,0.2873,0.2734,0.2779,0.2565,0.2513,0.2926,0.2853,0.2701,0.2701,0.2702,0.2702,0.2702,0.2702,0.2684,0.2627,0.2626,0.2527,0.2513,0.2423,0.2413,0.2392,0.2438,0.2444,0.247,0.2569,0.2748,0.2781,0.2672,0.2601,0.2383,0.226,0.2265,0.2569,0.2599,0.2628,0.2551,0.2338,0.2338,0.1733,0.1728,0.1725]},{"header":{"parameterUnit":"m.s-1","parameterCategory":2,"la1":30.2991,"la2":30.254,"lo1":-89.0895,"lo2":-89.0444,"dy":0.0017,"dx":0.0017,"nx":28,"ny":28,"refTime":"2024-10-18T21:00:00:Z","depth":"0","parameterNumber":3,"parameterNumberName":"V-component_of_CURRENTS"},"data":[0,0,0,0,0,0,0,0,0,0,0,0,0,0,0,0,0,0,0,0,0,0,0,0,0,0,0,0,0,0,0,0,0,0,0,0,0,0,0,0,0,0,0,0,0,0,0,0,0,0,0,0,0,0,0,0,0,0,-0.0054,-0.0054,0,-0.0054,-0.0054,-0.0054,-0.0057,-0.0057,-0.0057,-0.0057,-0.0141,-0.0144,-0.0146,0,0,0,0,0,0,0,0,0,0,0,0,0,-0.0068,-0.0067,-0.0054,-0.0054,-0.0054,-0.0054,-0.0054,-0.0054,-0.0057,-0.0057,-0.0057,-0.0057,-0.0141,-0.0143,-0.0146,0,0,0,0,0,0,0,0,0,0,0,0,0,-0.0065,-0.0067,-0.0054,-0.0054,-0.0054,-0.0054,-0.0054,-0.0054,-0.0057,-0.0057,-0.0057,-0.0057,-0.014,-0.0143,-0.0146,-0.0169,0,0,-0.0157,-0.0159,0,0,0,0,0,0,0,0,-0.0065,-0.0065,-0.0054,-0.0054,-0.0054,-0.0054,-0.009,-0.0097,-0.0057,-0.0057,-0.0057,-0.0057,-0.0119,-0.0124,-0.0125,-0.0173,-0.0177,-0.0157,-0.0159,-0.0161,-0.0162,0,0,0,0,0,0,0,-0.0066,-0.0065,-0.0056,-0.0054,-0.0054,-0.0058,-0.0058,-0.0091,-0.0091,-0.0057,-0.0057,-0.0055,-0.012,-0.0122,-0.0128,-0.0178,-0.0157,-0.016,-0.0162,-0.0164,-0.0235,-0.0235,0,0,0,0,0,0,-0.0062,-0.0065,-0.0056,-0.0055,-0.0058,-0.0058,-0.0057,-0.0055,-0.0089,-0.0093,-0.0055,-0.0055,-0.0116,-0.0123,-0.0131,-0.0139,-0.0161,-0.0164,-0.0166,-0.0235,-0.0235,-0.0235,0,0,0,0,0,0,-0.0063,-0.0062,-0.0055,-0.0059,-0.0059,-0.0057,-0.0055,-0.0055,-0.0053,-0.0086,-0.0092,-0.0052,-0.0116,-0.0126,-0.0149,-0.0143,-0.0166,-0.0169,-0.0236,-0.0235,-0.0235,-0.017,0,0,0,0,0,0,-0.0063,-0.0062,-0.006,-0.0059,-0.0058,-0.0046,-0.0055,-0.0055,-0.0051,-0.0051,-0.0086,-0.0093,-0.0117,-0.0144,-0.0153,-0.0149,-0.0172,-0.0236,-0.0235,-0.0235,-0.0172,-0.0168,-0.0164,0,0,0,0,0,-0.0064,-0.0057,-0.006,-0.0058,-0.0055,-0.0045,-0.0045,-0.0045,-0.0051,-0.0044,-0.0067,-0.0092,-0.0148,-0.0146,-0.0157,-0.0154,-0.0236,-0.0235,-0.0235,-0.0174,-0.0169,-0.0164,0,0,0,0,0,0,-0.0063,-0.0057,-0.0059,-0.0052,-0.0045,-0.0044,-0.004,-0.0042,-0.0053,-0.0056,-0.0091,-0.01,-0.0119,-0.0147,-0.0144,-0.0174,-0.0196,-0.0198,-0.0147,-0.0142,-0.0137,-0.0114,-0.0174,0,0,0,0,0,-0.0062,-0.0053,-0.005,-0.0042,-0.004,-0.0041,-0.0038,-0.0035,-0.0044,-0.0048,-0.0073,-0.0102,-0.0126,-0.0141,-0.0168,-0.0187,-0.0208,-0.0192,-0.0188,-0.0184,-0.0172,-0.0196,-0.0193,-0.0234,-0.0234,-0.0234,0,0,-0.0061,-0.0054,-0.005,-0.0041,-0.0039,-0.002,-0.0039,-0.0028,-0.0013,-0.0059,-0.0056,-0.009,-0.0128,-0.0142,-0.0154,-0.0164,-0.0184,-0.0183,-0.0179,-0.017,-0.0196,-0.0191,-0.0188,-0.0233,-0.0233,-0.0233,0,0,-0.0039,-0.0047,-0.0027,-0.0019,-0.0007,-0.0006,-0.0,0.0001,-0.0001,-0.0005,-0.0033,-0.0056,-0.0097,-0.0115,-0.0132,-0.0122,-0.016,-0.0138,-0.0096,-0.012,-0.0116,-0.0114,-0.0133,-0.0133,-0.0135,-0.0135,-0.0135,0,-0.0032,-0.0008,-0.002,0.0005,0.0021,0.0005,0.0035,0.003,0.0025,0.0027,0.0003,-0.0042,-0.008,-0.0088,-0.0085,-0.0111,-0.013,-0.0111,-0.0112,-0.011,-0.0108,-0.0129,-0.013,-0.0131,-0.0132,-0.0132,-0.0132,0,0.0009,0.0029,0.004,0.0069,0.0079,0.0102,0.0099,0.0101,0.0088,0.0085,0.007,0.0019,-0.0003,-0.0026,-0.0055,-0.0059,-0.0078,-0.0103,-0.0121,-0.01,-0.0124,-0.0125,-0.0127,-0.0128,-0.0129,-0.013,0,0,0.004,0.0067,0.0074,0.0102,0.0119,0.0138,0.0151,0.017,0.0194,0.0156,0.0176,0.0117,0.009,0.0068,0.0024,-0.0003,-0.0015,-0.0043,-0.0046,-0.0054,-0.0063,-0.0067,-0.0069,-0.004,-0.004,-0.004,-0.0084,0,0.0086,0.0146,0.0145,0.0205,0.0238,0.0226,0.0246,0.0254,0.0251,0.0261,0.0199,0.0194,0.0126,0.0116,0.0078,0.0015,-0.0015,-0.0,-0.009,-0.0093,-0.0091,-0.007,-0.0031,-0.0065,-0.0085,-0.0086,-0.0086,0,0.0141,0.0176,0.0238,0.0286,0.0298,0.0323,0.0364,0.0386,0.0383,0.0375,0.0352,0.0306,0.0263,0.0197,0.01,0.0113,0.0033,-0.0027,-0.0031,-0.0055,-0.0099,-0.0092,-0.0067,-0.0183,-0.0088,-0.0088,-0.0088,0,0.019,0.0247,0.0301,0.0317,0.0359,0.038,0.0404,0.0421,0.0462,0.0454,0.0474,0.0405,0.0385,0.0274,0.0143,0.0122,0.0036,-0.001,-0.009,-0.0092,-0.0086,-0.0086,-0.0174,-0.0081,-0.0081,-0.0081,-0.0081,0,0.0252,0.0297,0.0327,0.0359,0.0431,0.0436,0.0514,0.0523,0.056,0.0622,0.054,0.057,0.0404,0.033,0.0188,0.0058,0.0069,-0.0072,-0.0099,-0.0063,-0.0061,-0.0184,-0.0272,-0.0083,-0.0082,-0.0082,-0.0082,0,0.0303,0.0319,0.0388,0.0436,0.0458,0.0512,0.0597,0.0657,0.0669,0.0747,0.0747,0.0706,0.0614,0.0441,0.0276,0.0138,-0.0073,-0.0059,-0.0002,-0.0022,-0.0209,-0.0295,-0.0426,-0.0487,-0.0151,-0.0151,-0.0151,0,0.0337,0.0375,0.0449,0.0501,0.0526,0.0605,0.0667,0.071,0.0789,0.084,0.089,0.0826,0.0814,0.0575,0.0323,0.0087,-0.0065,-0.0053,-0.0093,-0.0202,-0.0318,-0.0382,-0.0428,-0.0063,-0.0063,-0.0062,-0.0062,0,0.0407,0.0424,0.0481,0.0582,0.0655,0.0751,0.0844,0.0923,0.098,0.1049,0.1133,0.1127,0.0907,0.0709,0.0373,0.0197,-0.0129,-0.0052,-0.0179,-0.0263,-0.0324,-0.0399,-0.0056,-0.0058,-0.0059,-0.0059,-0.0059,-0.0059,0.0459,0.0507,0.0577,0.0676,0.0766,0.0883,0.0973,0.1085,0.122,0.1329,0.1322,0.1351,0.1042,0.0613,0.0359,-0.0071,-0.0112,-0.0206,-0.0302,-0.0356,-0.0411,-0.0056,-0.0083,-0.0084,-0.0084,-0.0084,-0.0085,0,0.0526,0.0577,0.0671,0.0784,0.0891,0.0926,0.1084,0.1183,0.1348,0.146,0.1539,0.143,0.1053,0.0634,0.0053,-0.0255,-0.0378,-0.0434,-0.0515,-0.0553,-0.0237,-0.0227,-0.0269,-0.0268,-0.0268,-0.0268,-0.0268,-0.0268,0.0562,0.0652,0.0694,0.0868,0.0953,0.1094,0.1186,0.1338,0.1457,0.1608,0.1651,0.1656,0.1348,0.0335,-0.0336,-0.0498,-0.0728,-0.078,-0.0914,-0.0695,-0.068,-0.0667,-0.0677,-0.0811,-0.0812,-0.116,-0.1164,-0.1166]}],[{"header":{"parameterUnit":"m.s-1","parameterCategory":2,"la1":30.2991,"la2":30.254,"lo1":-89.0895,"lo2":-89.0444,"dy":0.0017,"dx":0.0017,"nx":28,"ny":28,"refTime":"2024-10-18T21:00:00:Z","depth":"2","parameterNumber":2,"parameterNumberName":"U-component_of_CURRENTS"},"data":[0,0,0,0,0,0,0,0,0,0,0,0,0,0,0,0,0,0,0,0,0,0,0,0,0,0,0,0,0,0,0,0,0,0,0,0,0,0,0,0,0,0,0,0,0,0,0,0,0,0,0,0,0,0,0,0,0,0,0.2699,0.27,0,0.2718,0.2718,0.2718,0.2712,0.2712,0.2712,0.2712,0.2703,0.2703,0.2703,0,0,0,0,0,0,0,0,0,0,0,0,0,0.2688,0.2687,0.2699,0.27,0.27,0.2718,0.2718,0.2718,0.2712,0.2712,0.2712,0.2712,0.2703,0.2703,0.2703,0,0,0,0,0,0,0,0,0,0,0,0,0,0.2695,0.2687,0.2699,0.2702,0.2703,0.2718,0.2718,0.2718,0.2712,0.2712,0.2712,0.2712,0.2703,0.2703,0.2703,0.2704,0,0,0.2702,0.2702,0,0,0,0,0,0,0,0,0.2694,0.2695,0.2701,0.2702,0.2703,0.2716,0.2711,0.2713,0.2712,0.2705,0.2712,0.2712,0.2707,0.2707,0.2706,0.2703,0.2703,0.2702,0.2702,0.2702,0.2702,0,0,0,0,0,0,0,0.2694,0.2694,0.2703,0.2702,0.2703,0.2713,0.2713,0.2711,0.2703,0.2706,0.2706,0.2714,0.2707,0.2706,0.2706,0.2703,0.2702,0.2702,0.2702,0.2702,0.2752,0.2753,0,0,0,0,0,0,0.2697,0.2693,0.2703,0.2704,0.2702,0.2713,0.2713,0.2709,0.2704,0.2704,0.2714,0.2713,0.2707,0.2706,0.2705,0.2745,0.2702,0.2702,0.2702,0.275,0.2752,0.2754,0,0,0,0,0,0,0.2696,0.2697,0.2702,0.2703,0.2704,0.2714,0.2709,0.2709,0.2724,0.2711,0.271,0.273,0.2707,0.2706,0.2719,0.2743,0.2702,0.2701,0.2749,0.2751,0.2753,0.2798,0,0,0,0,0,0,0.2696,0.2696,0.2709,0.2702,0.2705,0.2723,0.2709,0.271,0.2729,0.2729,0.2724,0.2722,0.2706,0.272,0.2719,0.2742,0.2701,0.2747,0.275,0.2752,0.2795,0.2802,0.2808,0,0,0,0,0,0.2695,0.2707,0.2709,0.2711,0.2716,0.2725,0.2727,0.2731,0.2731,0.2742,0.274,0.2723,0.2737,0.272,0.2719,0.2742,0.2745,0.2749,0.2752,0.2792,0.28,0.2807,0,0,0,0,0,0,0.2705,0.2708,0.271,0.2721,0.2731,0.2725,0.2739,0.2743,0.275,0.2753,0.2737,0.2735,0.276,0.2747,0.273,0.2768,0.2741,0.2744,0.2772,0.278,0.2786,0.2798,0.2701,0,0,0,0,0,0.2715,0.2723,0.2728,0.2737,0.2743,0.2745,0.2755,0.2759,0.276,0.2764,0.2761,0.2763,0.2771,0.2772,0.2776,0.2791,0.2798,0.2808,0.2815,0.282,0.283,0.2863,0.2873,0.2765,0.2764,0.2764,0,0,0.2716,0.2724,0.2727,0.2742,0.2744,0.2757,0.275,0.2768,0.2783,0.2762,0.2782,0.2787,0.2782,0.2802,0.2812,0.2794,0.2856,0.2824,0.2828,0.2836,0.2868,0.2878,0.2888,0.2767,0.2766,0.2766,0,0,0.2723,0.2734,0.2744,0.2755,0.2776,0.278,0.2791,0.2799,0.2809,0.283,0.2825,0.2847,0.2849,0.2854,0.2855,0.2902,0.2894,0.2905,0.2939,0.297,0.2979,0.2988,0.3014,0.3024,0.2902,0.2902,0.2902,0,0.2731,0.2737,0.275,0.2765,0.2777,0.2792,0.2805,0.282,0.2835,0.2849,0.2844,0.288,0.2875,0.2906,0.2923,0.2916,0.2931,0.2906,0.2978,0.2986,0.2994,0.3019,0.303,0.2905,0.2904,0.2904,0.2904,0,0.274,0.2752,0.2758,0.2779,0.28,0.2812,0.2835,0.286,0.2877,0.2892,0.2936,0.2941,0.296,0.2968,0.2957,0.3011,0.3005,0.2986,0.2956,0.3008,0.3031,0.3041,0.2908,0.2907,0.2907,0.2906,0,0,0.2723,0.2758,0.2758,0.2768,0.2807,0.2817,0.2857,0.2891,0.2925,0.295,0.2992,0.3016,0.303,0.3035,0.3035,0.3063,0.3128,0.3051,0.3051,0.3074,0.3203,0.3145,0.315,0.3123,0.3125,0.3127,0.32,0,0.2722,0.2744,0.277,0.279,0.2798,0.2836,0.2872,0.2913,0.2954,0.3002,0.3028,0.3071,0.3052,0.3076,0.3101,0.3129,0.3157,0.3111,0.3154,0.3156,0.3094,0.316,0.2905,0.2944,0.3209,0.3211,0.3212,0,0.2711,0.2731,0.275,0.2791,0.28,0.2826,0.2891,0.293,0.3007,0.3047,0.3098,0.3124,0.318,0.3156,0.3224,0.3197,0.3208,0.3222,0.3224,0.3161,0.3116,0.2936,0.2952,0.3229,0.3227,0.3226,0.3225,0,0.2672,0.2708,0.2724,0.2735,0.2793,0.282,0.286,0.294,0.2986,0.3087,0.3131,0.3197,0.324,0.3271,0.3295,0.3271,0.3368,0.333,0.3287,0.3282,0.3069,0.3042,0.338,0.338,0.3379,0.3379,0.3379,0,0.2643,0.265,0.2707,0.2711,0.2745,0.28,0.2857,0.2919,0.3017,0.3069,0.3149,0.3201,0.3273,0.3324,0.3333,0.3348,0.3395,0.3313,0.3305,0.3078,0.3053,0.3297,0.3287,0.3382,0.3381,0.3381,0.338,0,0.2581,0.2618,0.2636,0.27,0.2723,0.2748,0.2843,0.2884,0.2994,0.3069,0.3105,0.3227,0.3302,0.3356,0.3427,0.3391,0.3416,0.3403,0.3136,0.3094,0.3299,0.329,0.3368,0.3366,0.3365,0.3364,0.3364,0,0.2546,0.2551,0.2615,0.2627,0.2654,0.2706,0.2741,0.286,0.2908,0.3064,0.3086,0.3211,0.3265,0.3361,0.3347,0.3367,0.3413,0.3123,0.3027,0.3318,0.3302,0.3295,0.3288,0.2763,0.2758,0.2753,0.2749,0,0.2481,0.2511,0.253,0.256,0.259,0.2624,0.2686,0.2719,0.2849,0.2917,0.3007,0.3076,0.3189,0.3107,0.3154,0.3122,0.3102,0.3031,0.3409,0.281,0.2755,0.2737,0.2749,0.2708,0.2712,0.2715,0.2718,0.2719,0.2431,0.2427,0.2459,0.2474,0.2505,0.2515,0.2507,0.2573,0.2625,0.2685,0.2832,0.2843,0.2903,0.285,0.2773,0.2714,0.2926,0.2773,0.2784,0.2801,0.2722,0.2669,0.2591,0.2594,0.2597,0.26,0.2602,0,0.2352,0.2357,0.2368,0.2371,0.2353,0.2418,0.244,0.2403,0.2396,0.2488,0.2542,0.2371,0.2339,0.2392,0.225,0.2265,0.2213,0.2158,0.2055,0.21,0.2139,0.2022,0.1707,0.1704,0.1701,0.1698,0,0,0.2308,0.2278,0.2277,0.2213,0.222,0.2156,0.2143,0.2111,0.2131,0.2091,0.2076,0.2245,0.2338,0.1985,0.1954,0.1802,0.1929,0.1732,0.2458,0.2384,0.2419,0.2515,0.239,0,0,0,0,0]},{"header":{"parameterUnit":"m.s-1","parameterCategory":2,"la1":30.2991,"la2":30.254,"lo1":-89.0895,"lo2":-89.0444,"dy":0.0017,"dx":0.0017,"nx":28,"ny":28,"refTime":"2024-10-18T21:00:00:Z","depth":"2","parameterNumber":3,"parameterNumberName":"V-component_of_CURRENTS"},"data":[0,0,0,0,0,0,0,0,0,0,0,0,0,0,0,0,0,0,0,0,0,0,0,0,0,0,0,0,0,0,0,0,0,0,0,0,0,0,0,0,0,0,0,0,0,0,0,0,0,0,0,0,0,0,0,0,0,0,0.0252,0.0251,0,0.0193,0.0193,0.0192,0.0155,0.0155,0.0155,0.0154,0.0077,0.0075,0.0073,0,0,0,0,0,0,0,0,0,0,0,0,0,0.0266,0.0266,0.0252,0.0251,0.025,0.0193,0.0192,0.0192,0.0155,0.0155,0.0155,0.0154,0.0078,0.0075,0.0073,0,0,0,0,0,0,0,0,0,0,0,0,0,0.0238,0.0266,0.0252,0.0226,0.0223,0.0194,0.0192,0.0191,0.0155,0.0155,0.0154,0.0154,0.0078,0.0076,0.0073,0.0057,0,0,0.0064,0.0062,0,0,0,0,0,0,0,0,0.024,0.0237,0.023,0.0228,0.0225,0.0182,0.0169,0.0146,0.0155,0.0179,0.0154,0.0154,0.0111,0.0106,0.0093,0.0054,0.005,0.0063,0.0062,0.006,0.0059,0,0,0,0,0,0,0,0.0242,0.0239,0.0227,0.023,0.0226,0.0195,0.0192,0.0164,0.0146,0.0177,0.0175,0.017,0.0109,0.0096,0.0091,0.0049,0.0063,0.0061,0.0059,0.0058,-0.0002,-0.0002,0,0,0,0,0,0,0.0255,0.0241,0.0229,0.0226,0.0233,0.0196,0.0191,0.0195,0.0146,0.0139,0.0171,0.0169,0.0102,0.0095,0.0088,0.0081,0.006,0.0058,0.0056,-0.0002,-0.0002,-0.0001,0,0,0,0,0,0,0.0256,0.0255,0.0231,0.0232,0.0228,0.0196,0.02,0.0194,0.0181,0.0142,0.0134,0.0164,0.0101,0.0093,0.0071,0.0078,0.0056,0.0053,-0.0002,-0.0002,-0.0002,0.0058,0,0,0,0,0,0,0.0257,0.0256,0.0257,0.0234,0.0228,0.022,0.02,0.0193,0.0179,0.0176,0.0134,0.0126,0.01,0.0076,0.0068,0.0073,0.0051,-0.0002,-0.0002,-0.0002,0.0056,0.006,0.0064,0,0,0,0,0,0.0257,0.0267,0.0258,0.0256,0.0233,0.0221,0.0215,0.019,0.0179,0.0177,0.0151,0.0128,0.0073,0.0074,0.0065,0.0069,-0.0003,-0.0002,-0.0002,0.0054,0.0059,0.0064,0,0,0,0,0,0,0.0273,0.0263,0.0253,0.0258,0.0242,0.0215,0.0212,0.0193,0.017,0.0168,0.013,0.0121,0.0104,0.0078,0.008,0.0052,0.0031,0.003,0.0076,0.0081,0.0085,0.0102,0.0049,0,0,0,0,0,0.0278,0.0283,0.0265,0.0268,0.0265,0.0238,0.0227,0.0213,0.0191,0.0181,0.0151,0.0121,0.0098,0.0084,0.0058,0.0042,0.0017,0.0038,0.0043,0.0046,0.0054,0.0023,0.0026,-0.0,-0.0,-0.0,0,0,0.0285,0.0279,0.0282,0.0271,0.0259,0.0261,0.0231,0.0224,0.0223,0.0176,0.0164,0.0134,0.0097,0.0083,0.0072,0.0062,0.004,0.0047,0.0051,0.0056,0.0024,0.0027,0.0029,0.0,0.0,0.0,0,0,0.0307,0.0299,0.0312,0.0304,0.0291,0.0276,0.0278,0.0253,0.024,0.0223,0.0193,0.017,0.0128,0.0109,0.0093,0.0103,0.0063,0.009,0.0125,0.0095,0.0097,0.0099,0.0071,0.0069,0.0092,0.0093,0.0093,0,0.0315,0.033,0.0312,0.0322,0.0322,0.0289,0.0304,0.0286,0.0255,0.0251,0.0227,0.0176,0.0142,0.0132,0.0135,0.0113,0.0089,0.0111,0.0102,0.0103,0.0103,0.0074,0.0071,0.0095,0.0095,0.0095,0.0095,0,0.0346,0.0357,0.0366,0.037,0.0366,0.0373,0.0353,0.0343,0.0321,0.0302,0.0281,0.0232,0.0205,0.0187,0.0162,0.0153,0.0132,0.0112,0.0093,0.011,0.0077,0.0073,0.01,0.0099,0.0098,0.0097,0,0,0.0372,0.0386,0.0389,0.0404,0.0395,0.0399,0.04,0.0397,0.0408,0.0359,0.0364,0.0313,0.0285,0.0265,0.0227,0.0197,0.0175,0.0159,0.0157,0.0138,0.011,0.0099,0.0094,0.0152,0.0152,0.0152,0.0086,0,0.0403,0.0439,0.0434,0.0467,0.0488,0.0465,0.0472,0.0462,0.0447,0.044,0.0384,0.0372,0.0316,0.0305,0.0266,0.0203,0.0168,0.0195,0.009,0.0087,0.0081,0.009,0.0116,0.006,0.0082,0.0081,0.0081,0,0.0438,0.0459,0.0499,0.0528,0.0535,0.0544,0.0561,0.0568,0.055,0.0537,0.0509,0.0464,0.0418,0.0363,0.026,0.0279,0.0201,0.0142,0.0137,0.0106,0.007,0.0045,0.0052,0.0074,0.0075,0.0075,0.0076,0,0.0473,0.0508,0.0545,0.0552,0.0572,0.0584,0.0596,0.0596,0.0624,0.0604,0.0614,0.0543,0.0517,0.0409,0.0283,0.0271,0.0163,0.0132,0.0046,0.0044,0.0035,0.0033,0.0053,0.0053,0.0054,0.0054,0.0054,0,0.0514,0.0544,0.0564,0.0583,0.0633,0.063,0.0685,0.0684,0.0704,0.0748,0.0672,0.0684,0.0526,0.0444,0.0313,0.0176,0.0184,0.0056,0.0028,0.0056,0.0056,0.0044,0.0043,0.0051,0.0052,0.0052,0.0053,0,0.055,0.0561,0.0608,0.0637,0.0652,0.069,0.0754,0.0799,0.0801,0.0854,0.0851,0.0795,0.0691,0.0525,0.0357,0.0231,0.0089,0.0034,0.0077,0.0056,-0.0021,-0.0018,-0.0066,-0.0067,-0.0068,-0.0069,-0.0069,0,0.0572,0.0599,0.0651,0.0688,0.0704,0.0763,0.0812,0.0844,0.0905,0.0929,0.0963,0.0881,0.0844,0.0595,0.0361,0.0134,0.0095,-0.0003,-0.0024,-0.001,-0.0033,-0.0028,-0.0024,-0.0017,-0.0017,-0.0017,-0.0017,0,0.0614,0.0628,0.0667,0.0745,0.0801,0.0881,0.0953,0.1015,0.1058,0.1102,0.1145,0.1116,0.0886,0.0673,0.0358,0.0201,0.0035,-0.0011,-0.0007,0.0015,0.0032,0.0012,0.0015,-0.0017,-0.0017,-0.0017,-0.0017,-0.0017,0.0642,0.0677,0.0728,0.0806,0.0881,0.098,0.1052,0.1138,0.1239,0.1301,0.1279,0.1239,0.0991,0.0603,0.033,0.0035,0.0049,-0.0063,-0.0061,-0.006,-0.0037,-0.0021,-0.0076,-0.0077,-0.0077,-0.0077,-0.0077,0,0.0674,0.0717,0.0788,0.0879,0.0969,0.1005,0.1135,0.1209,0.1327,0.1381,0.1413,0.1182,0.0947,0.065,0.0224,-0.0028,-0.005,-0.0116,-0.0086,-0.0083,-0.0081,-0.0059,-0.0105,-0.0106,-0.0107,-0.0107,0,0,0.0691,0.0757,0.0794,0.0933,0.1006,0.1127,0.1204,0.1311,0.138,0.1434,0.1418,0.1381,0.1035,0.0722,0.0383,0.0135,0.0079,0.0082,0.0134,0.0212,0.0217,-0.0019,0.0023,0,0,0,0,0]}],[{"header":{"parameterUnit":"m.s-1","parameterCategory":2,"la1":30.2991,"la2":30.254,"lo1":-89.0895,"lo2":-89.0444,"dy":0.0017,"dx":0.0017,"nx":28,"ny":28,"refTime":"2024-10-18T21:00:00:Z","depth":"4","parameterNumber":2,"parameterNumberName":"U-component_of_CURRENTS"},"data":[0,0,0,0,0,0,0,0,0,0,0,0,0,0,0,0,0,0,0,0,0,0,0,0,0,0,0,0,0,0,0,0,0,0,0,0,0,0,0,0,0,0,0,0,0,0,0,0,0,0,0,0,0,0,0,0,0,0,0.1666,0.1667,0,0.1747,0.1748,0.1749,0.1813,0.1814,0.1814,0.1815,0.1877,0.1878,0.1879,0,0,0,0,0,0,0,0,0,0,0,0,0,0.1579,0.158,0.1666,0.1667,0.1668,0.1747,0.1748,0.1749,0.1813,0.1814,0.1814,0.1815,0.1877,0.1878,0.1879,0,0,0,0,0,0,0,0,0,0,0,0,0,0.1633,0.158,0.1666,0.171,0.1715,0.1747,0.1748,0.175,0.1812,0.1814,0.1815,0.1816,0.1876,0.1878,0.1879,0.1866,0,0,0.1884,0.1884,0,0,0,0,0,0,0,0,0.163,0.1636,0.1703,0.1707,0.1713,0.1772,0.1741,0.1788,0.1812,0.1774,0.1815,0.1816,0.184,0.1845,0.1856,0.1869,0.1872,0.1884,0.1885,0.1885,0.1886,0,0,0,0,0,0,0,0.1626,0.1633,0.1697,0.1704,0.171,0.1731,0.174,0.175,0.1799,0.1778,0.1783,0.1793,0.1843,0.1854,0.1858,0.1873,0.1884,0.1885,0.1886,0.1886,0.1995,0.1997,0,0,0,0,0,0,0.1617,0.1629,0.1695,0.17,0.1675,0.1732,0.1741,0.1751,0.1799,0.1808,0.1792,0.1796,0.1851,0.1856,0.186,0.1947,0.1885,0.1887,0.1887,0.1993,0.1996,0.1998,0,0,0,0,0,0,0.1614,0.1622,0.1691,0.1667,0.1678,0.1732,0.1743,0.1752,0.1803,0.1811,0.1819,0.1838,0.1852,0.1858,0.1909,0.1946,0.1887,0.1889,0.1991,0.1994,0.1997,0.2055,0,0,0,0,0,0,0.1611,0.162,0.1643,0.1667,0.1679,0.1735,0.1742,0.1753,0.1806,0.1813,0.1852,0.1857,0.1854,0.1907,0.191,0.1947,0.189,0.1988,0.1992,0.1996,0.2051,0.206,0.2068,0,0,0,0,0,0.1608,0.1626,0.1643,0.1653,0.1702,0.1736,0.1745,0.1786,0.1808,0.1835,0.1868,0.1858,0.1933,0.1909,0.1913,0.1951,0.1986,0.1991,0.1995,0.2047,0.2058,0.2068,0,0,0,0,0,0,0.1601,0.1635,0.1655,0.1684,0.1721,0.1748,0.1782,0.1807,0.1855,0.1873,0.1879,0.1886,0.1946,0.1942,0.1915,0.1995,0.196,0.1965,0.1998,0.2008,0.2016,0.2019,0.1891,0,0,0,0,0,0.1608,0.1636,0.1668,0.1699,0.1718,0.1758,0.1785,0.1814,0.1849,0.1874,0.1902,0.1933,0.196,0.1981,0.2003,0.2041,0.2042,0.207,0.2079,0.2086,0.2092,0.2129,0.2141,0.2013,0.2013,0.2012,0,0,0.1614,0.1639,0.1657,0.1701,0.1734,0.1768,0.1778,0.183,0.1869,0.187,0.1943,0.1966,0.1979,0.2029,0.2055,0.2034,0.2126,0.2092,0.2097,0.21,0.2135,0.2147,0.2158,0.2016,0.2015,0.2015,0,0,0.1628,0.1664,0.1689,0.1722,0.1778,0.1802,0.1825,0.1876,0.1916,0.1976,0.1991,0.204,0.2083,0.2101,0.2112,0.218,0.2171,0.2195,0.2237,0.2273,0.2283,0.2292,0.2314,0.2325,0.2196,0.2196,0.2196,0,0.164,0.167,0.1704,0.1736,0.1771,0.1821,0.1857,0.1898,0.1965,0.1997,0.2011,0.2101,0.2115,0.2168,0.2198,0.2199,0.2215,0.2193,0.2283,0.2292,0.23,0.232,0.2331,0.2199,0.2199,0.2199,0.2198,0,0.1658,0.1701,0.1721,0.1778,0.1819,0.1863,0.1916,0.1972,0.2026,0.2062,0.2147,0.2178,0.2228,0.2245,0.2243,0.2315,0.2307,0.229,0.2252,0.2316,0.2334,0.2344,0.2204,0.2203,0.2202,0.2201,0,0,0.1642,0.1719,0.1733,0.1767,0.1849,0.1879,0.1953,0.2022,0.208,0.2149,0.2219,0.2279,0.2308,0.2324,0.2338,0.2373,0.2448,0.2366,0.2366,0.238,0.253,0.2365,0.236,0.2452,0.2454,0.2456,0.2519,0,0.1654,0.171,0.1753,0.1824,0.1856,0.1928,0.1991,0.2064,0.2135,0.2216,0.2265,0.2341,0.2333,0.2379,0.2412,0.2446,0.2479,0.2433,0.2473,0.2474,0.2312,0.2367,0.2463,0.2527,0.2529,0.2531,0.2532,0,0.1653,0.1696,0.1758,0.1847,0.1871,0.1927,0.204,0.2106,0.2217,0.2277,0.2356,0.2401,0.248,0.2463,0.2545,0.2521,0.2535,0.2549,0.2552,0.2382,0.2327,0.245,0.255,0.2549,0.2548,0.2546,0.2545,0,0.1606,0.1697,0.1748,0.178,0.1887,0.1943,0.2014,0.2128,0.2194,0.233,0.2389,0.248,0.2543,0.2582,0.2614,0.2597,0.2689,0.266,0.2521,0.251,0.2613,0.2603,0.2713,0.2713,0.2713,0.2713,0.2712,0,0.1581,0.1629,0.1737,0.1765,0.1845,0.1931,0.2031,0.2119,0.2244,0.2313,0.2422,0.2478,0.258,0.2635,0.2648,0.2611,0.2715,0.2536,0.2517,0.2637,0.2629,0.2621,0.2609,0.2715,0.2714,0.2714,0.2714,0,0.1516,0.1587,0.1654,0.1777,0.1824,0.1885,0.2034,0.2094,0.223,0.2326,0.2375,0.2507,0.2572,0.264,0.2713,0.2634,0.2632,0.2593,0.2728,0.2714,0.2422,0.2414,0.2439,0.2433,0.2429,0.2425,0.2422,0,0.1481,0.151,0.1649,0.1694,0.1758,0.1863,0.1928,0.2078,0.2134,0.2311,0.2332,0.2459,0.2522,0.2486,0.2576,0.2587,0.2555,0.2534,0.2464,0.2416,0.2396,0.2394,0.2392,0.2415,0.2414,0.2412,0.2411,0,0.142,0.1486,0.1542,0.1632,0.171,0.1781,0.1883,0.1909,0.2065,0.2201,0.2234,0.227,0.2334,0.2379,0.2409,0.241,0.2536,0.2487,0.2495,0.2429,0.2388,0.2372,0.2374,0.2396,0.2398,0.2399,0.24,0,0.1382,0.1404,0.1485,0.1552,0.1639,0.1666,0.1735,0.1788,0.1861,0.204,0.2047,0.2175,0.2305,0.2288,0.2315,0.2306,0.2265,0.2181,0.2204,0.2223,0.2121,0.2036,0.1923,0,0,0,0,0,0.1334,0.1343,0.1396,0.1451,0.1526,0.1579,0.1686,0.1751,0.1891,0.1859,0.1947,0.1994,0.2031,0.2104,0.2051,0.2228,0.2282,0.2156,0.2198,0.231,0.2328,0.2228,0,0,0,0,0,0,0.1299,0.1345,0.1357,0.1349,0.1366,0.1431,0.1494,0.159,0.1576,0.1726,0.1757,0.1872,0.1942,0.2041,0.2013,0.2035,0.2018,0.2244,0.2238,0.2299,0.2316,0.233,0.2234,0,0,0,0,0]},{"header":{"parameterUnit":"m.s-1","parameterCategory":2,"la1":30.2991,"la2":30.254,"lo1":-89.0895,"lo2":-89.0444,"dy":0.0017,"dx":0.0017,"nx":28,"ny":28,"refTime":"2024-10-18T21:00:00:Z","depth":"4","parameterNumber":3,"parameterNumberName":"V-component_of_CURRENTS"},"data":[0,0,0,0,0,0,0,0,0,0,0,0,0,0,0,0,0,0,0,0,0,0,0,0,0,0,0,0,0,0,0,0,0,0,0,0,0,0,0,0,0,0,0,0,0,0,0,0,0,0,0,0,0,0,0,0,0,0,0.0272,0.0272,0,0.0232,0.0231,0.0231,0.0207,0.0207,0.0207,0.0207,0.0155,0.0153,0.0152,0,0,0,0,0,0,0,0,0,0,0,0,0,0.0278,0.0278,0.0272,0.0272,0.0271,0.0232,0.0231,0.0231,0.0207,0.0207,0.0207,0.0207,0.0155,0.0154,0.0152,0,0,0,0,0,0,0,0,0,0,0,0,0,0.026,0.0278,0.0272,0.0256,0.0254,0.0232,0.0231,0.0231,0.0207,0.0207,0.0207,0.0207,0.0156,0.0154,0.0152,0.014,0,0,0.0145,0.0144,0,0,0,0,0,0,0,0,0.0261,0.026,0.0258,0.0257,0.0255,0.0225,0.0214,0.02,0.0207,0.0224,0.0207,0.0207,0.0178,0.0174,0.0165,0.0137,0.0135,0.0145,0.0144,0.0143,0.0142,0,0,0,0,0,0,0,0.0262,0.0261,0.0256,0.0258,0.0256,0.0232,0.023,0.0211,0.0201,0.0223,0.0221,0.0218,0.0176,0.0167,0.0164,0.0134,0.0145,0.0143,0.0142,0.0141,0.0105,0.0106,0,0,0,0,0,0,0.0272,0.0262,0.0257,0.0254,0.0259,0.0233,0.023,0.0234,0.0201,0.0196,0.0218,0.0217,0.0171,0.0166,0.0162,0.0164,0.0143,0.0141,0.014,0.0105,0.0105,0.0106,0,0,0,0,0,0,0.0272,0.0272,0.0259,0.0257,0.0254,0.0233,0.0237,0.0233,0.0228,0.0198,0.0193,0.0217,0.0171,0.0165,0.0153,0.0161,0.014,0.0138,0.0105,0.0105,0.0106,0.0156,0,0,0,0,0,0,0.0272,0.0272,0.0279,0.0259,0.0255,0.0252,0.0237,0.0233,0.0226,0.0224,0.0196,0.019,0.017,0.0157,0.0151,0.0158,0.0137,0.0104,0.0105,0.0105,0.0154,0.0158,0.0162,0,0,0,0,0,0.0273,0.0284,0.028,0.0279,0.0265,0.0253,0.0249,0.0232,0.0226,0.0227,0.021,0.0191,0.0156,0.0156,0.0149,0.0155,0.0104,0.0105,0.0105,0.0153,0.0158,0.0162,0,0,0,0,0,0,0.0289,0.0282,0.0277,0.0286,0.0273,0.0249,0.025,0.0237,0.0223,0.0224,0.0195,0.0189,0.0181,0.0161,0.0161,0.0146,0.0127,0.0126,0.0165,0.0169,0.0173,0.0183,0.0135,0,0,0,0,0,0.0296,0.0304,0.0289,0.0296,0.0293,0.0272,0.0266,0.0255,0.024,0.0234,0.0213,0.0193,0.0178,0.0169,0.0151,0.0143,0.0117,0.0142,0.0146,0.0149,0.0153,0.0123,0.0125,0.0108,0.0108,0.0108,0,0,0.0304,0.0301,0.0305,0.0299,0.029,0.0291,0.0268,0.0265,0.0265,0.023,0.0227,0.0206,0.0179,0.0172,0.0166,0.0156,0.014,0.015,0.0153,0.0155,0.0124,0.0125,0.0127,0.0108,0.0108,0.0108,0,0,0.0321,0.0322,0.0334,0.0328,0.0319,0.0308,0.0309,0.0291,0.0284,0.0275,0.0253,0.024,0.0212,0.0197,0.0185,0.0198,0.0162,0.0191,0.0218,0.0189,0.019,0.0191,0.016,0.0158,0.0192,0.0192,0.0192,0,0.033,0.0344,0.0333,0.0341,0.0342,0.0319,0.033,0.0318,0.0297,0.0297,0.0281,0.0247,0.0224,0.0217,0.0222,0.0207,0.0183,0.0204,0.0194,0.0195,0.0194,0.0163,0.0159,0.0195,0.0195,0.0194,0.0194,0,0.0352,0.0364,0.0371,0.0377,0.0376,0.0381,0.0368,0.0365,0.0353,0.034,0.0329,0.0294,0.0275,0.0264,0.0247,0.0238,0.0219,0.0204,0.0185,0.0199,0.0165,0.016,0.0198,0.0198,0.0197,0.0196,0,0,0.037,0.0386,0.0388,0.0401,0.0398,0.0401,0.0407,0.0407,0.0418,0.0386,0.039,0.0357,0.0338,0.0324,0.0296,0.0269,0.0247,0.024,0.0237,0.0213,0.018,0.0165,0.0158,0.0229,0.0229,0.0228,0.0156,0,0.0391,0.0419,0.042,0.0447,0.0461,0.0451,0.0459,0.0456,0.0449,0.0446,0.0406,0.04,0.0361,0.0356,0.0323,0.027,0.0237,0.0267,0.0166,0.0163,0.0151,0.0154,0.0227,0.0152,0.0151,0.0151,0.015,0,0.0411,0.0429,0.0462,0.0489,0.0495,0.0508,0.0528,0.0536,0.0526,0.0519,0.05,0.0468,0.0431,0.0393,0.0302,0.0322,0.0257,0.0207,0.0202,0.0168,0.014,0.0133,0.0142,0.0142,0.0143,0.0143,0.0144,0,0.0428,0.046,0.0492,0.0499,0.0522,0.0538,0.0554,0.056,0.0583,0.0572,0.0579,0.0522,0.0501,0.0411,0.0309,0.0305,0.0199,0.018,0.0101,0.0099,0.0112,0.0111,0.0109,0.011,0.011,0.011,0.011,0,0.0447,0.0474,0.0505,0.0521,0.0566,0.0572,0.0621,0.0625,0.0645,0.0676,0.0625,0.0624,0.0504,0.043,0.0325,0.0203,0.021,0.0105,0.008,0.0134,0.0137,0.0108,0.0109,0.0107,0.0108,0.0108,0.0109,0,0.0459,0.0478,0.0519,0.0557,0.0576,0.0611,0.0675,0.071,0.072,0.0756,0.0755,0.0703,0.0605,0.0476,0.033,0.0233,0.0112,0.0064,0.0134,0.0113,0.0024,0.0028,-0.0032,-0.0033,-0.0034,-0.0034,-0.0035,0,0.0465,0.0487,0.0549,0.0583,0.0606,0.0663,0.0707,0.0744,0.0785,0.0802,0.0818,0.0744,0.0685,0.0476,0.0333,0.0127,0.0093,0.0021,0.0017,0.0028,0.0009,0.0015,0.0021,-0.0037,-0.0037,-0.0037,-0.0037,0,0.0477,0.0502,0.0537,0.0612,0.0667,0.0734,0.0798,0.0832,0.0871,0.0883,0.0865,0.0758,0.0647,0.048,0.032,0.0172,0.0063,0.001,0.0011,0.0006,0.0021,0.0005,0.0011,-0.0041,-0.004,-0.004,-0.004,0,0.0486,0.0513,0.0567,0.0632,0.0708,0.0778,0.0814,0.0857,0.0898,0.0909,0.0901,0.0783,0.0718,0.0503,0.0359,0.0209,0.0164,0.01,0.0095,0.0097,0.0152,0.0191,0.016,0,0,0,0,0,0.0491,0.0523,0.0584,0.0656,0.0735,0.0783,0.0863,0.0893,0.0928,0.092,0.0913,0.0808,0.0598,0.052,0.0367,0.0327,0.0129,0.014,0.0052,-0.0059,-0.0055,-0.0015,0,0,0,0,0,0,0.0493,0.0547,0.0577,0.0667,0.0722,0.0813,0.0866,0.0893,0.0891,0.09,0.0801,0.0752,0.0559,0.0685,0.0359,0.0316,0.0233,0.005,0.0046,-0.0061,-0.0057,-0.0054,-0.0012,0,0,0,0,0]}]]